Skip Page Navigation
NASA JPL Caltech
NASA Logo - Jet Propulsion Laboratory + View the NASA Portal
+ Center for Near-Earth Object Studies
JPL Home Earth Solar System Stars & Galaxies Technology
JPL Solar System Dynamics
BODIES ORBITS EPHEMERIDES TOOLS PHYSICAL DATA DISCOVERY FAQ SITE MAP
JPL Small-Body Database Browser
Search: [ help ]  
15556 (2000 FW49)
Classification: Main-belt Asteroid          SPK-ID: 2015556
Ephemeris | Orbit Diagram | Orbital Elements | Mission Design | Physical Parameters | Discovery Circumstances ]

[ show orbit diagram ]
Orbital Elements at Epoch 2459200.5 (2020-Dec-17.0) TDB
Reference: JPL 36 (heliocentric ecliptic J2000)
 Element Value Uncertainty (1-sigma)   Units 
e .1264398312792903 1.687e-08  
a 2.370223527830218 7.7048e-09 au
q 2.070532864877161 3.945e-08 au
i 6.086747137759115 3.2354e-07 deg
node 294.7097892456096 4.2291e-06 deg
peri 34.49556997232437 8.9136e-06 deg
M 136.5903463025454 6.3846e-06 deg
tp 2458694.791923795698
(2019-Jul-30.29192380)
2.303e-05 TDB
period 1332.853399685363
3.65
6.499e-06
1.779e-08
d
yr
n .270097221558637 1.317e-09 deg/d
Q 2.669914190783274 8.679e-09 au
  Orbit Determination Parameters
   # obs. used (total)      2007  
   data-arc span      15153 days (41.49 yr)  
   first obs. used      1979-09-22  
   last obs. used      2021-03-18  
   planetary ephem.      DE441  
   SB-pert. ephem.      SB441-N16  
   condition code      0  
   norm. resid. RMS      .4388  
   source      ORB  
   producer      Otto Matic  
   solution date      2021-May-04 02:04:19  

Additional Information
 Earth MOID = 1.0602 au 
 Jupiter MOID = 2.63554 au 
 T_jup = 3.527 
[ show covariance matrix ]

Ephemeris | Orbit Diagram | Orbital Elements | Mission Design | Physical Parameters | Discovery Circumstances ]

Physical Parameter Table
Parameter Symbol Value Units Sigma Reference Notes
absolute magnitude H 14.07   n/a MPCxxxxx  
diameter diameter 3.368 km 1.132 urn:nasa:pds:neowise_diameters_albedos::2.0[mainbelt] (http://adsabs.harvard.edu/abs/2011ApJ...741...68M)  
geometric albedo albedo 0.470   0.273 urn:nasa:pds:neowise_diameters_albedos::2.0[mainbelt] (http://adsabs.harvard.edu/abs/2011ApJ...741...68M)  

15556 (2000 FW49)          Discovered 2000-Mar-30 by LINEAR at Socorro
Reference: 20000621/Numbers.arcLast Updated: 2004-04-19

Alternate Designations
 2000 FW49 = 1979 SD2 = 1990 RL17 
Ephemeris | Orbit Diagram | Orbital Elements | Mission Design | Physical Parameters | Discovery Circumstances ]
ABOUT SSD CREDITS/AWARDS PRIVACY/COPYRIGHT GLOSSARY LINKS
FirstGov 2021-May-09 20:20 UT
(server date/time)  
NASA Home Page
Site Manager:   Ryan S. Park
Webmaster  Alan B. Chamberlin